Dewpoint
49 45 41 33 19 17 10 8 8 5 16 41 45 46 41 49 32 42 59 59 61 66 69 69 70 70 70 69 69 68 66 66 66 65 64 63 65 65 65 65 65 65 62 59 59 58 57 56 58
39 37 26 18 16 13 7 11 6 16 39 38 36 47 45 51 57 58 61 62 67 65 67 69 69 69 69 68 68 67 66 66 65 64 64 65 65 66 66 66 65 65 62 59 59 58 58 58 60
38 30 21 18 16 10 5 11 13 25 31 40 37 37 51 53 54 57 61 64 64 64 67 68 68 68 68 68 67 66 65 65 64 64 65 65 65 66 67 66 65 65 63 59 59 58 59 60 59
35 26 22 13 3 5 6 11 17 24 40 38 33 48 54 59 58 56 58 64 64 65 67 68 68 68 67 67 66 66 65 64 64 65 65 65 66 66 67 66 65 65 63 59 59 59 60 60 57
25 18 15 11 11 6 14 17 17 27 41 37 40 47 49 59 63 63 60 65 62 66 68 68 68 67 67 66 66 65 65 65 65 65 65 65 65 65 65 66 65 65 63 60 59 60 60 58 56
22 19 10 9 10 26 37 39 35 26 41 38 39 43 46 61 61 63 65 64 64 65 67 67 67 67 66 66 66 65 65 66 66 65 65 65 65 64 64 65 64 64 63 62 62 61 59 57 54
18 15 12 9 10 28 35 39 40 38 42 45 44 46 55 58 61 62 63 66 65 65 66 65 66 66 65 65 65 65 66 66 66 66 66 65 64 64 63 64 64 64 62 62 61 59 59 56 52
17 14 11 8 17 24 35 39 41 35 47 50 50 47 53 57 61 61 61 63 64 64 64 63 64 64 64 64 65 65 65 65 65 64 63 63 62 62 62 62 63 62 62 61 60 59 57 52 48
17 13 12 12 14 21 28 36 44 42 40 54 56 56 57 59 60 60 60 59 61 62 62 63 63 62 63 64 64 65 65 64 63 62 60 57 57 55 58 61 62 62 61 60 59 56 51 48 45
14 14 14 13 13 17 17 28 42 42 37 50 49 56 58 58 58 57 57 57 57 58 59 61 62 62 62 62 63 64 63 61 60 58 56 56 56 58 60 61 60 60 60 59 55 52 50 49 45
14 14 16 13 20 19 20 35 41 38 44 51 44 54 55 57 56 55 56 56 56 56 58 58 58 58 57 58 60 59 59 58 57 57 59 58 58 58 59 59 57 55 53 50 49 51 50 50 47
13 13 16 16 18 21 20 35 42 47 50 54 55 55 55 55 54 54 54 54 55 55 56 56 56 57 57 58 59 59 58 57 56 59 59 58 58 56 55 55 55 54 52 47 48 52 49 46 44
15 15 17 20 24 24 29 32 35 47 51 54 54 55 55 53 53 53 54 54 54 54 54 54 54 54 54 55 56 57 56 55 58 58 58 57 57 58 56 55 54 53 53 52 51 49 48 45 44
20 20 18 23 22 27 32 43 43 50 51 52 52 54 55 54 52 52 52 52 52 53 53 54 54 54 53 53 52 52 54 53 55 56 55 55 57 57 56 56 54 54 52 52 50 49 46 45 43
18 17 19 24 26 30 36 34 40 46 47 45 47 50 52 53 53 51 51 50 52 52 53 53 54 53 52 52 52 54 52 50 46 49 55 57 54 57 57 54 53 53 53 52 50 47 44 41 38
19 16 17 28 29 34 34 29 37 39 43 42 41 45 51 53 51 49 50 50 51 51 51 53 55 53 53 54 51 50 52 47 45 49 56 55 55 57 57 56 54 53 52 50 49 46 44 41 37
15 15 16 23 26 33 35 37 39 42 41 42 43 47 50 52 51 50 48 49 49 50 51 52 52 51 51 51 51 50 51 53 51 51 54 58 57 57 57 56 54 53 52 51 49 45 43 39 36
15 18 19 25 29 25 38 39 42 46 37 38 40 38 45 47 51 52 48 48 48 48 49 50 50 49 50 50 52 52 53 52 51 50 57 57 58 58 58 57 54 52 52 49 47 43 40 39 39
13 16 20 26 30 28 30 38 44 45 39 38 36 35 40 44 46 52 49 49 49 50 47 47 49 51 52 52 53 53 50 52 53 56 57 58 58 57 57 57 54 53 52 49 48 44 39 35 40
13 12 15 15 22 19 18 18 36 37 38 40 39 38 39 44 47 47 49 50 51 50 49 51 50 52 54 55 53 53 51 51 54 58 59 59 58 57 56 56 55 53 51 49 46 44 41 41 42
12 13 14 19 23 21 18 16 18 36 35 38 41 41 39 41 47 46 48 50 51 49 50 51 52 54 56 55 54 51 51 50 52 55 58 58 58 57 55 56 54 53 52 49 47 45 42 40 42
11 13 17 21 19 14 20 17 19 30 32 36 37 39 38 38 42 46 47 48 49 51 51 51 51 51 54 55 55 50 48 49 53 54 56 57 58 57 55 54 53 52 51 48 47 46 43 43 43
13 24 24 20 16 18 17 15 11 20 23 33 38 39 39 39 39 43 46 48 49 50 52 52 51 52 54 56 57 55 50 54 55 56 55 56 57 56 56 52 51 52 50 49 47 43 43 45 42
19 24 24 21 17 18 18 14 18 23 25 24 31 37 39 39 39 40 45 47 49 50 52 54 53 53 54 57 57 56 52 54 55 55 56 56 55 54 53 51 52 53 52 48 45 44 46 43 43
19 19 18 17 18 19 20 15 16 26 25 25 23 26 38 39 38 40 41 45 47 49 52 53 54 53 54 57 58 57 56 56 55 55 56 57 54 53 53 53 52 52 49 46 42 45 45 45 42
20 19 20 23 26 24 26 18 15 22 20 19 20 20 29 38 39 39 39 43 45 49 51 52 53 52 53 56 58 58 58 58 58 58 58 56 55 55 55 53 50 47 45 44 44 47 45 43 41
20 19 21 32 34 30 31 20 14 18 16 17 18 23 26 27 37 39 39 40 44 48 51 53 53 52 53 54 59 59 59 58 58 58 58 57 56 55 52 49 47 45 45 44 45 43 43 41 41
19 23 23 23 24 24 16 14 15 18 15 18 17 20 28 29 28 35 38 39 42 48 51 54 53 53 53 55 59 60 60 58 57 58 59 57 56 49 49 48 46 45 44 44 43 43 42 38 38
19 19 25 26 22 21 19 19 28 29 29 18 17 20 23 27 32 35 36 37 40 43 47 54 54 54 55 56 60 60 59 58 59 59 59 58 51 50 48 48 46 44 44 43 42 41 39 37 37
20 20 21 24 22 26 28 24 22 24 27 20 22 22 23 25 28 36 39 39 40 41 44 55 56 56 57 59 60 59 58 56 57 57 58 54 51 50 48 47 45 43 44 43 42 39 32 37 38
Wind_Speed
11 13 13 16 10 12 22 26 29 26 2 7 20 13 19 26 15 3 1 10 14 5 15 23 28 29 28 27 27 26 25 25 25 25 23 22 22 21 21 21 20 22 24 23 23 23 22 19 14
12 20 13 14 17 21 22 15 21 7 8 7 9 9 9 5 23 5 6 12 22 21 17 21 27 27 26 26 25 24 25 25 25 25 24 22 21 21 20 20 20 22 23 23 22 22 20 15 10
11 16 12 19 20 22 19 10 16 11 5 4 2 19 6 5 12 3 8 16 12 22 18 20 29 27 26 25 25 23 24 25 26 24 23 23 22 21 20 20 21 22 22 23 21 20 17 13 10
12 15 12 15 16 22 17 2 7 15 21 26 20 9 13 9 3 1 13 24 12 7 24 21 27 29 25 21 23 24 24 24 26 24 23 22 23 22 21 22 22 22 22 22 20 19 15 12 10
13 13 17 21 24 20 9 20 6 11 3 6 30 6 7 2 13 12 7 10 31 21 23 20 16 27 30 27 22 22 22 23 23 23 24 22 23 23 21 22 22 22 22 21 19 17 15 12 11
16 19 18 14 16 20 22 30 22 9 10 17 16 13 12 7 9 13 16 8 13 17 17 16 22 22 28 26 24 23 22 23 21 22 23 22 22 23 22 21 21 21 21 20 18 15 14 13 12
16 18 20 20 7 13 6 22 24 11 16 16 20 24 8 2 5 7 11 14 13 12 15 16 14 21 22 23 22 22 24 22 21 21 21 21 21 22 22 21 21 20 21 19 17 16 15 12 10
14 18 23 13 3 1 9 19 16 11 6 9 9 8 11 3 8 9 15 19 15 19 24 19 10 17 19 18 23 22 25 26 22 22 21 21 21 22 22 21 19 19 20 18 17 16 14 12 8
16 18 17 16 4 6 10 2 12 24 8 19 11 14 10 8 10 12 18 18 17 18 19 23 19 18 19 19 23 23 24 26 22 23 23 18 15 18 16 18 17 16 18 17 15 15 14 12 8
13 19 17 8 12 12 15 11 14 11 3 16 11 10 10 10 13 13 14 15 15 13 16 17 18 18 22 19 21 20 23 18 15 16 15 10 14 15 16 15 17 15 14 14 13 12 11 11 7
17 18 11 12 8 11 17 12 23 9 12 15 12 4 10 12 13 13 13 14 14 10 19 15 19 13 12 16 15 16 15 15 14 11 14 16 14 15 13 12 10 11 10 9 8 6 6 4 13
8 16 9 11 14 11 16 2 16 18 13 17 11 8 10 10 11 12 13 13 15 17 12 15 15 15 14 11 13 14 16 14 11 12 14 15 12 14 13 12 12 11 10 12 10 7 9 8 8
13 15 12 11 7 11 12 11 14 15 18 18 12 12 10 10 19 14 15 15 15 17 18 15 16 18 17 16 15 15 15 13 11 13 10 10 11 12 13 12 13 13 10 9 11 9 7 7 9
9 11 15 10 12 9 3 19 30 12 13 15 13 12 12 12 16 14 14 15 17 18 19 20 19 19 19 15 17 14 13 7 6 9 5 6 8 9 12 12 12 10 10 8 11 9 8 6 11
13 18 18 18 10 1 13 10 8 28 5 15 15 13 15 14 14 11 15 16 17 18 20 19 20 18 21 19 14 3 7 5 4 6 15 16 11 10 7 7 6 8 8 7 9 6 7 7 6
17 21 21 12 18 9 12 6 13 16 26 19 18 19 14 16 15 16 17 20 19 18 18 20 20 22 17 15 15 15 6 12 16 15 13 11 7 12 7 9 6 8 8 7 7 9 9 5 4
20 22 18 8 2 9 6 4 20 17 14 20 20 15 16 18 17 18 19 22 21 21 21 18 17 24 27 25 26 27 24 16 13 16 15 14 13 9 6 8 11 10 9 8 10 7 5 7 4
9 15 14 8 7 11 21 15 15 26 13 14 15 15 13 16 24 24 22 23 22 23 21 23 22 24 24 22 20 23 15 17 16 14 11 15 11 13 13 12 12 9 9 8 7 7 1 2 5
19 11 25 7 6 13 25 29 28 29 21 18 15 20 17 16 13 26 25 26 22 25 24 26 28 27 24 23 14 11 12 10 10 7 12 14 12 11 13 12 15 13 12 13 11 6 8 6 3
17 16 22 6 12 6 11 14 25 24 25 22 20 21 22 22 23 23 26 26 26 25 26 24 24 22 18 14 15 12 14 12 14 11 12 10 15 15 15 14 13 14 11 11 12 9 10 10 9
17 20 20 14 7 10 12 15 5 17 19 21 23 23 24 26 29 26 27 26 26 30 29 27 26 25 22 21 19 15 15 17 16 17 17 18 15 15 14 15 12 14 12 13 12 10 9 10 8
19 17 16 11 16 13 6 18 8 24 18 18 18 20 19 23 29 30 29 29 28 29 31 30 27 25 22 22 18 20 17 18 13 14 15 17 17 17 12 15 12 12 11 12 13 11 10 7 4
16 1 12 15 17 19 17 10 8 13 17 24 22 21 22 22 26 33 34 34 33 28 30 30 30 28 27 23 22 18 19 16 13 13 12 10 12 11 10 8 12 11 12 10 16 13 12 6 4
11 11 16 14 16 19 20 16 10 2 9 12 24 25 22 23 25 26 33 33 33 32 30 29 28 27 27 29 27 18 16 15 18 15 12 12 11 10 11 10 12 10 11 9 9 8 10 7 3
12 14 14 15 18 17 22 15 9 14 23 22 20 20 27 26 22 24 29 32 33 34 35 32 32 29 26 31 26 22 20 17 14 17 18 14 13 13 15 15 14 13 10 7 9 10 10 9 6
16 20 15 7 6 14 16 6 10 22 11 4 1 4 14 27 27 26 25 29 31 34 35 33 32 30 27 23 29 28 26 24 18 17 15 17 16 16 16 18 13 14 12 12 13 11 10 7 8
18 22 20 9 4 9 17 8 9 12 6 5 5 2 7 10 27 30 30 29 29 31 33 35 31 30 27 28 27 26 26 22 19 16 16 17 15 11 13 14 14 13 13 16 14 13 10 8 8
22 16 17 11 6 8 11 13 4 6 6 8 4 7 3 2 8 19 21 22 28 32 35 35 34 33 29 24 23 20 17 12 12 14 16 15 12 14 14 13 13 13 15 14 15 12 9 12 7
15 19 11 18 18 13 10 8 10 6 14 4 6 7 6 5 1 4 6 5 15 27 24 33 32 28 27 28 21 19 15 12 14 14 14 15 16 16 14 15 16 17 16 14 13 12 12 11 9
24 22 23 21 13 9 3 12 13 11 21 5 2 6 5 3 2 6 5 3 5 5 7 29 29 27 22 23 23 22 19 16 15 12 10 15 16 15 15 15 16 16 15 13 14 11 7 8 12
Wind_Direction
275 245 234 255 250 237 251 251 250 265 44 3 57 65 341 355 283 318 281 133 114 246 122 135 134 134 133 130 128 128 128 124 120 117 115 114 112 109 107 108 109 108 104 103 100 98 94 92 86
281 287 248 268 251 271 260 319 282 348 82 19 29 103 223 90 333 56 56 151 159 154 154 144 129 131 129 129 129 129 128 124 122 120 120 115 113 108 110 112 115 114 111 107 102 99 97 97 83
265 266 268 238 252 255 283 316 306 38 41 118 99 209 128 123 272 356 49 116 129 139 143 151 139 135 126 130 130 131 128 126 122 123 121 118 114 113 114 119 122 119 113 111 108 103 103 94 74
251 243 238 253 263 280 309 247 323 310 19 355 310 57 94 66 273 22 318 129 94 75 138 127 132 127 126 132 132 131 129 126 124 125 121 117 114 111 111 117 121 121 117 113 111 109 105 88 63
238 259 256 257 266 277 1 332 330 326 125 304 286 93 103 11 335 5 286 185 145 127 124 124 126 131 139 139 133 127 125 123 123 123 118 116 111 109 109 113 116 117 117 117 116 108 99 87 62
271 252 273 279 277 40 21 342 331 308 148 207 256 62 337 74 16 345 17 147 140 126 135 131 128 139 132 134 129 125 123 118 120 118 117 113 112 108 106 107 111 115 116 116 111 106 96 85 62
262 289 281 297 334 29 22 322 285 64 318 342 329 141 188 101 42 40 55 74 111 120 149 126 126 128 118 112 118 120 118 110 111 107 109 110 106 105 105 106 114 119 118 116 115 109 100 88 78
273 285 278 278 35 76 194 219 268 319 121 176 256 337 120 143 96 74 65 71 83 87 85 76 71 85 93 104 111 114 113 105 104 108 108 108 106 106 105 106 114 121 120 119 115 111 105 96 83
272 268 269 297 307 124 208 172 59 307 281 75 51 50 94 123 109 85 75 69 84 117 137 142 136 134 141 135 117 118 110 110 121 123 127 122 125 121 107 107 110 117 121 122 124 127 127 130 140
248 266 306 4 322 358 318 339 163 211 276 64 40 75 84 84 74 72 85 90 81 100 116 112 120 149 146 141 135 127 119 128 132 137 137 114 113 104 100 106 110 116 122 128 138 148 141 158 180
259 261 336 308 30 336 315 23 326 314 40 72 279 167 101 86 79 75 73 86 94 89 107 99 114 100 120 130 138 132 140 138 126 142 91 97 100 106 112 119 121 127 139 136 157 150 184 123 58
288 269 290 304 333 326 300 24 70 33 82 109 129 148 111 108 102 94 89 80 101 94 81 102 109 108 114 104 116 136 123 117 136 115 104 114 122 120 134 149 155 170 184 171 185 117 86 85 82
248 266 303 294 313 285 322 337 334 89 98 97 102 88 70 92 98 96 99 88 92 103 88 82 93 94 89 81 75 88 112 139 106 95 108 118 135 146 168 174 174 192 181 188 107 124 143 123 82
298 290 284 268 265 280 252 29 13 36 104 105 103 95 81 88 99 108 112 105 99 101 107 101 82 82 84 88 87 85 70 79 89 102 119 168 191 179 194 173 187 176 158 183 153 164 168 148 126
267 280 273 278 254 164 94 44 225 255 275 107 106 124 118 120 125 140 130 119 117 116 118 112 110 107 100 98 111 110 119 105 113 175 207 213 213 178 178 179 174 167 194 146 109 140 117 123 117
264 261 265 212 262 102 100 267 264 263 249 129 124 122 135 143 148 131 139 134 131 130 129 133 129 128 125 126 107 101 162 202 195 220 207 205 229 180 213 203 178 159 127 136 162 190 189 142 119
255 257 241 255 50 170 131 113 289 272 223 153 149 145 153 159 151 143 144 148 145 143 150 142 144 143 139 145 162 182 205 191 198 213 209 181 215 179 197 211 194 146 170 192 181 210 180 145 171
269 268 308 265 285 252 158 178 177 274 182 190 154 136 142 150 164 154 154 155 165 153 165 156 157 159 167 175 189 202 179 190 204 226 182 200 211 194 190 238 143 160 200 179 194 172 153 166 190
280 281 259 143 211 220 264 172 197 199 175 185 160 146 159 161 152 158 155 161 173 162 171 169 176 187 195 203 195 195 200 201 223 173 236 183 205 180 192 229 157 187 215 183 191 159 162 217 150
275 273 279 235 195 226 280 283 171 176 176 179 173 171 174 185 165 162 162 170 168 166 174 180 184 185 191 196 200 199 192 201 210 207 205 215 205 196 195 226 174 187 224 181 169 175 193 217 169
257 257 266 336 240 251 265 271 215 170 187 179 177 186 184 177 166 172 171 173 168 173 183 188 186 193 195 198 207 197 194 200 197 201 201 206 203 215 194 210 185 187 225 170 175 196 228 210 176
242 246 283 228 276 269 295 277 197 169 181 183 186 190 193 182 172 172 177 177 186 182 186 195 202 204 199 207 220 193 204 201 191 203 185 200 190 203 207 197 195 198 198 174 184 196 220 237 220
239 5 293 288 263 279 269 245 271 202 198 182 191 195 192 194 185 179 181 185 186 192 188 194 201 206 193 199 218 214 201 192 198 195 207 185 181 174 226 181 186 192 195 205 184 192 197 185 213
234 182 234 258 260 264 267 253 235 145 318 223 186 188 196 196 194 190 181 183 187 191 196 196 205 210 193 195 213 212 201 201 190 199 213 199 174 179 201 217 200 209 208 195 187 169 157 197 191
220 249 244 239 241 244 250 253 240 163 202 239 181 194 187 195 200 194 187 186 188 190 192 194 199 209 211 189 200 202 203 223 203 184 202 206 192 186 194 207 212 197 193 184 195 179 179 187 214
213 230 233 215 288 293 324 250 244 179 172 100 107 273 199 190 191 197 202 188 190 188 188 193 197 202 207 187 190 195 199 209 205 191 186 192 187 191 195 204 187 181 182 203 210 168 161 192 218
219 219 242 105 228 265 240 249 231 176 164 162 191 74 270 234 196 198 200 195 185 186 186 189 192 201 204 201 188 191 205 203 201 201 195 191 188 191 157 165 172 180 200 221 168 163 179 206 208
241 235 242 201 209 227 259 259 327 134 232 160 211 183 111 287 241 212 200 208 190 184 185 186 192 194 197 196 189 191 211 198 200 204 190 186 177 155 169 182 183 191 209 176 167 173 180 201 195
217 238 225 258 238 249 266 280 115 336 349 269 177 149 130 139 125 344 331 303 204 199 197 183 187 189 193 190 173 188 203 198 200 210 193 197 159 168 174 188 197 196 180 175 175 176 190 186 200
245 224 226 246 225 255 250 259 182 192 209 202 223 240 139 82 108 160 173 271 310 292 205 173 185 181 185 174 182 195 183 196 193 202 206 164 169 169 182 191 198 199 169 169 179 184 181 162 124